Weather in La Grande-Motte

France     43°33′41″N   4°05′14″E
temp.,
°C
wind,
m/s
gust,
m/s
humid.,
%
clouds,
%
prec.,
mm/h
press.,
hPa
HPBL,
m
22 january, sat
sat2201:00+6nnw511500 0.0 10291070
04:00+6nnw510510 0.0 1029923
07:00+5nnw58570 0.0 1029504
10:00+5nnw48560 0.0 1030413
13:00+8nnw58470 0.0 1029971
16:00+10nne56493 0.0 10271010
19:00+8nne1014600 0.0 1028798
22:00+7n711630 0.0 1029711
23 january, sun
sun2301:00+7n610650 0.0 1028567
04:00+6n57690 0.0 1028319
07:00+5nne68740 0.0 1029321
10:00+5nne68740 0.0 1029311
13:00+8ne445715 0.0 1029347
16:00+10ene3460100 0.0 1028422
19:00+10ne5562100 0.0 1028448
22:00+9ene4665100 0.0 1029379
24 january, mon
mon2401:00+9ne5567100 0.0 1029467
04:00+8ne5569100 0.1 1029274
07:00+8ne556887 0.1 1029249
10:00+7ne33700 0.0 1030209
13:00+8ene11640 0.0 1030226
16:00+9se21650 0.0 1030149
19:00+10s11650 0.0 1031189
22:00+10n11680 0.0 1032158
25 january, tue
tue2501:00+8nne43770 0.0 1033168
04:00+7nne44770 0.0 1034185
07:00+7nne44790 0.0 1034178
10:00+7nne33760 0.0 1034177
13:00+9w12710 0.0 1033228
16:00+10ssw33740 0.0 1032206
19:00+10sw34750 0.0 1031223
22:00+10wnw12750 0.0 1032208
26 january, wed
wed2601:00+8ne55830 0.0 1032197
04:00+7n33740 0.0 1031165
07:00+7n22690 0.0 1030155
10:00+7nne22680 0.0 1031199
13:00+8ne11580 0.0 1030253
16:00+9s11590 0.0 1029138
19:00+9se01560 0.0 1029110
22:00+9ne22630 0.0 1030142